Tracking 19644 objects as of 24-Apr-2019
HD Live streaming from Space Station
objects crossing your sky now

METEOR 2-5 DEB

Track METEOR 2-5 DEB now!
10-day predictions


NORAD ID: 28595
Int'l Code: 1979-095F
Perigee: 759.4 km
Apogee: 772.7 km
Inclination: 81.2 °
Period: 100.0 minutes
Semi major axis: 7137 km
RCS: 0.0147 m2 (small)
Launch date: October 31, 1979
Source: Commonwealth of Independent States (former USSR) (CIS)
Launch site: PLESETSK MISSILE AND SPACE COMPLEX (PKMTR)

Note: This is SATELLITE DEBRIS
aabbcc
Your satellite tracking list
Your tracking list is empty




NASA's NSSDC Master Catalog

Two Line Element Set (TLE):
1 28595U 79095F   19113.71765387  .00001721  00000-0  54364-3 0  9994
2 28595  81.1874 108.4732 0009294  77.1246 283.0979 14.39868856766247
Source of the keplerian elements: AFSPC